Content
SEND FEEDBACK

Daily
Averages
Monthly
Summary
United States of America

MERIZO, GUAM


Home > North America > United States > Guam
Elevation: 10 feet     Latitude: 13 14N     Longitude: 144 39E

WEATHER
 
SELECT A DAY
Number of Records: 354,148;   Date Range: 1/1/95 - 11/20/14
 
SHARE

PRINT THIS DATA

[ ← Previous Day ]
WEATHER ALMANAC - MARCH 29, 2013
[ Next Day → ]
[ °C ]   °F
Weather ElementAverageHighLow
Temperature79.5 °F84.2 °F (11:32 am)75.9 °F (5:55 am)
Dewpoint72.7 °F75.2 °F (12:40 pm)68.9 °F (5:55 am)
Humidity79.5 %89 % (3:47 am)66 % (11:55 am)
Barometer29.87 in29.91 in (8:48 am)29.82 in (3:55 pm)
Wind Speed15.3 mph20.7 mph (4:36 am)
Wind Gust29.9 mph (4:36 am)
Weather ElementAverage
Visibility10 mi
Wind DirectionENE (72.9 °)

Weather ElementTotal
Precipitation---
Cooling Degree Days15.1 (Base 65)
Growing Degree Days30.1 (Base 50)
Averaged from 79 records on March 29, 2013
WEATHER CONDITIONS BREAKOUT
WIND DIRECTION BREAKOUT
WEATHER BY HOUR - MARCH 29, 2013
[ °C ]   °F
Local TimeTemperatureDewpointHumidityBarometerVisibilityWind DirectionWind SpeedGust SpeedPrecipitationEventsConditions
12:18 AM78.8 °F71.6 °F78 %29.89 in10.0 miEast (80°)12.7 mphScattered Clouds
12:40 AM78.8 °F71.6 °F78 %29.88 in10.0 miENE (70°)13.8 mphMostly Cloudy
12:43 AM78.8 °F71.6 °F78 %29.88 in10.0 miEast (80°)15.0 mphScattered Clouds
12:45 AM78.8 °F71.6 °F78 %29.88 in10.0 miENE (70°)13.8 mphMostly Cloudy
12:47 AM77.0 °F71.6 °F83 %29.88 in10.0 miENE (70°)16.1 mphScattered Clouds
12:55 AM77.9 °F71.8 °F81 %29.88 in10.0 miEast (80°)13.8 mphScattered Clouds
1:00 AM78.8 °F71.6 °F78 %29.87 in10.0 miEast (80°)13.8 mphMostly Cloudy
1:09 AM78.8 °F71.6 °F78 %29.87 in10.0 miEast (80°)13.8 mphMostly Cloudy
1:19 AM78.8 °F71.6 °F78 %29.87 in10.0 miENE (70°)13.8 mphMostly Cloudy
1:32 AM77.0 °F71.6 °F83 %29.86 in10.0 miEast (80°)13.8 mphScattered Clouds
1:55 AM77.7 °F71.2 °F80 %29.85 in10.0 miEast (80°)12.7 mphScattered Clouds
2:19 AM77.0 °F71.6 °F83 %29.84 in10.0 miEast (80°)15.0 mphMostly Cloudy
2:20 AM77.0 °F71.6 °F83 %29.84 in10.0 miEast (80°)16.1 mphScattered Clouds
2:27 AM78.8 °F71.6 °F78 %29.84 in10.0 miEast (80°)13.8 mphMostly Cloudy
2:29 AM78.8 °F71.6 °F78 %29.84 in10.0 miEast (80°)13.8 mphScattered Clouds
2:41 AM77.0 °F71.6 °F83 %29.83 in10.0 miEast (80°)15.0 mphMostly Cloudy
2:43 AM78.8 °F71.6 °F78 %29.83 in10.0 miENE (70°)17.3 mphScattered Clouds
2:55 AM77.2 °F72.3 °F85 %29.83 in10.0 miENE (70°)15.0 mphPartly Cloudy
3:47 AM77.0 °F73.4 °F89 %29.83 in10.0 miEast (80°)16.1 mphMostly Cloudy
3:54 AM77.0 °F71.6 °F83 %29.83 in10.0 miENE (70°)16.1 mphMostly Cloudy
3:55 AM77.7 °F72.0 °F82 %29.83 in10.0 miENE (70°)16.1 mphMostly Cloudy
4:14 AM77.0 °F73.4 °F89 %29.83 in10.0 miENE (60°)13.8 mphMostly Cloudy
4:36 AM77.0 °F73.4 °F89 %29.83 in10.0 miENE (70°)20.7 mph29.9 mphMostly Cloudy
4:37 AM77.0 °F73.4 °F89 %29.83 in10.0 miENE (70°)20.7 mph29.9 mphRainLight Rain
4:42 AM77.0 °F73.4 °F89 %29.84 in9.0 miEast (80°)17.3 mph29.9 mphRainLight Rain
4:49 AM77.0 °F71.6 °F83 %29.84 in10.0 miEast (80°)16.1 mphMostly Cloudy
4:55 AM76.3 °F72.3 °F87 %29.84 in10.0 miEast (80°)16.1 mph0.00 inMostly Cloudy
5:55 AM75.9 °F68.9 °F79 %29.85 in10.0 miENE (60°)13.8 mphOvercast
6:51 AM78.8 °F73.4 °F83 %29.87 in10.0 miENE (60°)12.7 mphMostly Cloudy
6:54 AM78.8 °F73.4 °F83 %29.87 in10.0 miENE (70°)10.4 mphMostly Cloudy
6:55 AM78.1 °F73.6 °F86 %29.87 in10.0 miENE (60°)10.4 mphMostly Cloudy
7:01 AM78.8 °F73.4 °F83 %29.87 in10.0 miENE (60°)15.0 mphMostly Cloudy
7:47 AM80.6 °F71.6 °F74 %29.88 in10.0 miEast (80°)17.3 mphScattered Clouds
7:55 AM80.4 °F72.0 °F75 %29.89 in10.0 miENE (70°)16.1 mphScattered Clouds
8:48 AM80.6 °F73.4 °F79 %29.91 in10.0 miENE (70°)13.8 mphMostly Cloudy
8:55 AM80.8 °F72.7 °F76 %29.91 in10.0 miEast (80°)17.3 mphMostly Cloudy
9:16 AM82.4 °F71.6 °F70 %29.91 in10.0 miENE (70°)17.3 mphScattered Clouds
9:45 AM82.4 °F73.4 °F74 %29.91 in10.0 miENE (70°)15.0 mph23.0 mphMostly Cloudy
9:51 AM82.4 °F71.6 °F70 %29.91 in10.0 miEast (80°)17.3 mphScattered Clouds
9:55 AM82.9 °F72.7 °F71 %29.91 in10.0 miEast (80°)16.1 mphScattered Clouds
10:01 AM82.4 °F73.4 °F74 %29.90 in10.0 miENE (70°)13.8 mphMostly Cloudy
10:11 AM82.4 °F73.4 °F74 %29.90 in10.0 miENE (70°)16.1 mphScattered Clouds
10:55 AM83.5 °F73.0 °F71 %29.90 in10.0 miENE (70°)15.0 mphScattered Clouds
11:32 AM84.2 °F73.4 °F70 %29.89 in10.0 miEast (80°)18.4 mphMostly Cloudy
11:35 AM82.4 °F73.4 °F74 %29.88 in10.0 miEast (80°)16.1 mphMostly Cloudy
11:55 AM84.0 °F71.8 °F66 %29.88 in10.0 miEast (80°)17.3 mphMostly Cloudy
12:26 PM84.2 °F73.4 °F70 %29.87 in10.0 miENE (70°)17.3 mphMostly Cloudy
12:40 PM82.4 °F75.2 °F79 %29.86 in10.0 miEast (90°)17.3 mphScattered Clouds
12:48 PM84.2 °F75.2 °F74 %29.86 in10.0 miEast (80°)15.0 mphMostly Cloudy
12:55 PM82.8 °F75.0 °F77 %29.86 in10.0 miEast (90°)17.3 mph21.9 mphMostly Cloudy
12:57 PM82.4 °F75.2 °F79 %29.86 in10.0 miEast (90°)17.3 mph24.2 mphMostly Cloudy
1:24 PM82.4 °F73.4 °F74 %29.85 in10.0 miENE (70°)17.3 mphMostly Cloudy
1:27 PM82.4 °F75.2 °F79 %29.85 in10.0 miENE (70°)16.1 mphMostly Cloudy
1:31 PM82.4 °F75.2 °F79 %29.85 in10.0 miEast (80°)13.8 mph23.0 mphMostly Cloudy
1:55 PM84.0 °F74.1 °F72 %29.84 in10.0 miEast (80°)18.4 mph24.2 mphMostly Cloudy
2:55 PM82.9 °F72.7 °F71 %29.83 in10.0 miENE (60°)13.8 mphOvercast
3:55 PM83.3 °F72.5 °F70 %29.82 in10.0 miENE (60°)15.0 mphScattered Clouds
4:55 PM81.9 °F72.7 °F74 %29.83 in10.0 miENE (70°)13.8 mphPartly Cloudy
5:55 PM79.9 °F72.5 °F78 %29.84 in10.0 miENE (70°)12.7 mphPartly Cloudy
6:55 PM78.6 °F72.5 °F81 %29.86 in10.0 miENE (70°)15.0 mphScattered Clouds
7:16 PM78.8 °F73.4 °F83 %29.86 in10.0 miENE (60°)12.7 mphMostly Cloudy
7:18 PM78.8 °F73.4 °F83 %29.87 in10.0 miENE (70°)16.1 mphScattered Clouds
7:55 PM78.4 °F72.9 °F83 %29.88 in10.0 miENE (60°)12.7 mphScattered Clouds
8:00 PM78.8 °F73.4 °F83 %29.89 in10.0 miENE (70°)15.0 mphMostly Cloudy
8:33 PM78.8 °F73.4 °F83 %29.90 in10.0 miENE (70°)13.8 mphScattered Clouds
8:55 PM78.4 °F72.5 °F82 %29.90 in10.0 miENE (70°)17.3 mphScattered Clouds
9:15 PM78.8 °F71.6 °F78 %29.91 in10.0 miENE (60°)17.3 mph25.3 mphMostly Cloudy
9:19 PM78.8 °F69.8 °F74 %29.91 in10.0 miENE (60°)15.0 mph25.3 mphMostly Cloudy
9:29 PM78.8 °F71.6 °F78 %29.91 in10.0 miENE (70°)13.8 mphMostly Cloudy
9:40 PM78.8 °F73.4 °F83 %29.91 in10.0 miENE (70°)15.0 mphMostly Cloudy
9:55 PM78.6 °F72.1 °F80 %29.91 in10.0 miEast (80°)16.1 mphMostly Cloudy
10:04 PM78.8 °F73.4 °F83 %29.91 in10.0 miENE (70°)18.4 mphRainLight Rain
10:07 PM78.8 °F73.4 °F83 %29.91 in10.0 miENE (60°)17.3 mphLight Drizzle
10:16 PM77.0 °F71.6 °F83 %29.91 in10.0 miEast (80°)13.8 mphMostly Cloudy
10:26 PM77.0 °F73.4 °F89 %29.91 in10.0 miENE (70°)17.3 mph23.0 mphMostly Cloudy
10:28 PM77.0 °F73.4 °F89 %29.91 in10.0 miENE (70°)17.3 mph23.0 mphMostly Cloudy
10:55 PM77.9 °F73.4 °F86 %29.91 in10.0 miEast (80°)12.7 mph0.00 inPartly Cloudy
11:48 PM78.8 °F73.4 °F83 %29.91 in10.0 miENE (70°)13.8 mphMostly Cloudy
11:55 PM78.1 °F72.9 °F84 %29.91 in10.0 miENE (70°)13.8 mphMostly Cloudy
Hourly data recorded from PGUA, located miles away from Merizo, Guam







STORIES FROM OUR PARTNERS